COSMOS 1275 DEB, 12725

Orbit data source: Space-Track

COSMOS 1275 DEB, 12725 is space debris in LEO originally from a launch on Thu, 04 Jun 1981 UTC launched from the Plesetsk Missile And Space Complex (PKMTR). Debris objects in space refer to the collection of defunct objects orbiting the Earth. Examples of debris include non-operational satellites, rocket bodies, and fragments generated from explosions, collisions, or faulty payload assembly.

Loading next visibility...
Identifier
12725, 1981-053BS
Orbit
LEO
Country
Flag of CISCIS
Related business
Manufacturer
Unknown
Mission
Spacecraft
Bus & Motor
Unknown
Mass
Unknown
Launch date (UTC)
1981-06-04 (45 years ago)
Launch vehicle
Unknown
Launch site
Plesetsk Missile And Space Complex (PKMTR)
Object type
Payload
Rocket body
Debris
Shape & HBR
Unknown shape, 0.1 m
Radar Cross Section
Small (<0.1 m²)

Expand to show TLE details & history
Last TLE update: 12 hours ago

TLE from 12 hours ago
0 COSMOS 1275 DEB
1 12725U 81053BS  26104.54725963  .00000848  00000-0  70854-3 0  9995
2 12725  83.1406  20.9290 0088085 188.0944 345.8208 13.85461252232752
Epoch: 2026-04-14T13:08Z
TLE epoch observation values (Epoch: 2026-04-14T13:08:03.232Z)
Latitude
6.21147°
Longitude
160.44737°
Altitude
884.394 km
Speed
7.442 km/s
True Right ascension
13h 20m 43s
True Declination
6° 10' 31"
Sunlit
Object was in full shadow at epoch
Visualization orbit readout
Latitude
Unknown
Longitude
Unknown
Altitude
Unknown
Speed
Unknown
Apparent Right ascension
Unknown
Apparent Declination
Unknown
Sunlit
N/A
Visualization observer readout
Local Sidereal Time
07:48:42
Azimuth
Unknown
Elevation
Unknown
Doppler factor
Unknown
Orbital elements
Apogee altitude
1,006.183 km
Perigee altitude
877.23 km
Semi-major axis
7,319.844 km
Eccentricity
0.00881
Inclination
83.1406°
RAAN
20.929°
Arg. of periapsis
188.0944°
True anomaly
345.57088°
Mean anomaly
345.8208°
Eccentric anomaly
345.69611°
Mean motion
3.4657 °/min
Orbital period
103.88 mins
BSTAR
0.00070854
Loading maneuver chart data...
Computing Atmospheric mass density...
Loading historical data...
Loading historical data...
Loading historical data...
Loading historical data...
Loading historical data...
Loading historical data...
Loading historical data...

Documentation

Showing up to 5 results
|